Time,TemperatureF,DewpointF,PressureIn,WindDirection,WindDirectionDegrees,WindSpeedMPH,WindSpeedGustMPH,Humidity,HourlyPrecipIn,Conditions,Clouds,dailyrainin,SoftwareType,DateUTC
2013-10-29 00:00:00,41.6,28.0,30.36,NW,311,0.0,2.0,59,0.00,,,0.00,weatherlink.com 1.10,2013-10-29 04:00:00,
2013-10-29 00:15:00,40.8,28.0,30.36,NW,322,0.0,1.0,61,0.00,,,0.00,weatherlink.com 1.10,2013-10-29 04:15:00,
2013-10-29 00:30:00,40.2,28.0,30.37,NW,322,0.0,0.0,63,0.00,,,0.00,weatherlink.com 1.10,2013-10-29 04:30:00,
2013-10-29 00:45:00,39.9,29.0,30.37,ESE,115,1.0,2.0,64,0.00,,,0.00,weatherlink.com 1.10,2013-10-29 04:45:00,
2013-10-29 01:02:00,40.7,29.0,30.38,NE,36,0.0,4.0,63,0.00,,,0.00,weatherlink.com 1.10,2013-10-29 05:02:00,
2013-10-29 01:17:00,40.7,29.0,30.38,ENE,78,0.0,3.0,63,0.00,,,0.00,weatherlink.com 1.10,2013-10-29 05:17:00,
2013-10-29 01:32:00,40.2,28.0,30.38,ESE,104,0.0,4.0,63,0.00,,,0.00,weatherlink.com 1.10,2013-10-29 05:32:00,
2013-10-29 01:47:00,39.9,28.0,30.38,East,83,0.0,5.0,62,0.00,,,0.00,weatherlink.com 1.10,2013-10-29 05:47:00,
2013-10-29 02:02:00,39.7,27.0,30.38,NNE,28,0.0,5.0,62,0.00,,,0.00,weatherlink.com 1.10,2013-10-29 06:02:00,
2013-10-29 02:18:00,39.6,27.0,30.38,North,360,0.0,7.0,62,0.00,,,0.00,weatherlink.com 1.10,2013-10-29 06:18:00,
2013-10-29 02:33:00,39.6,27.0,30.38,NNW,338,0.0,8.0,60,0.00,,,0.00,weatherlink.com 1.10,2013-10-29 06:33:00,
2013-10-29 02:48:00,39.6,27.0,30.39,East,82,0.0,5.0,60,0.00,,,0.00,weatherlink.com 1.10,2013-10-29 06:48:00,
2013-10-29 05:21:00,39.3,25.0,30.41,North,5,0.0,1.0,58,0.00,,,0.00,weatherlink.com 1.10,2013-10-29 09:21:00,
2013-10-29 05:37:00,39.2,25.0,30.41,North,349,0.0,3.0,56,0.00,,,0.00,weatherlink.com 1.10,2013-10-29 09:37:00,
2013-10-29 05:51:00,39.1,25.0,30.42,North,360,0.0,3.0,58,0.00,,,0.00,weatherlink.com 1.10,2013-10-29 09:51:00,
2013-10-29 06:06:00,38.9,25.0,30.42,WNW,289,0.0,4.0,57,0.00,,,0.00,weatherlink.com 1.10,2013-10-29 10:06:00,
2013-10-29 06:22:00,38.8,24.0,30.42,NE,38,0.0,5.0,56,0.00,,,0.00,weatherlink.com 1.10,2013-10-29 10:22:00,
2013-10-29 06:37:00,38.6,25.0,30.42,East,90,0.0,2.0,58,0.00,,,0.00,weatherlink.com 1.10,2013-10-29 10:37:00,
2013-10-29 06:53:00,38.4,25.0,30.43,NNW,338,1.0,2.0,58,0.00,,,0.00,weatherlink.com 1.10,2013-10-29 10:53:00,
2013-10-29 07:09:00,38.4,25.0,30.43,WNW,284,0.0,2.0,58,0.00,,,0.00,weatherlink.com 1.10,2013-10-29 11:09:00,
2013-10-29 07:24:00,38.3,25.0,30.43,North,360,0.0,1.0,58,0.00,,,0.00,weatherlink.com 1.10,2013-10-29 11:24:00,
2013-10-29 07:39:00,38.1,24.0,30.43,ENE,76,0.0,3.0,58,0.00,,,0.00,weatherlink.com 1.10,2013-10-29 11:39:00,
2013-10-29 07:54:00,38.0,25.0,30.43,NNE,28,0.0,3.0,59,0.00,,,0.00,weatherlink.com 1.10,2013-10-29 11:54:00,
2013-10-29 08:09:00,38.1,25.0,30.44,East,87,0.0,4.0,59,0.00,,,0.00,weatherlink.com 1.10,2013-10-29 12:09:00,
2013-10-29 08:25:00,38.5,24.0,30.44,North,11,0.0,4.0,57,0.00,,,0.00,weatherlink.com 1.10,2013-10-29 12:25:00,
2013-10-29 08:39:00,38.3,24.0,30.45,NW,318,0.0,3.0,57,0.00,,,0.00,weatherlink.com 1.10,2013-10-29 12:39:00,
2013-10-29 08:55:00,39.5,24.0,30.45,NNW,337,2.0,4.0,55,0.00,,,0.00,weatherlink.com 1.10,2013-10-29 12:55:00,
2013-10-29 09:10:00,40.9,26.0,30.45,NNE,30,1.0,3.0,55,0.00,,,0.00,weatherlink.com 1.10,2013-10-29 13:10:00,
2013-10-29 09:25:00,41.9,25.0,30.45,East,80,0.0,7.0,52,0.00,,,0.00,weatherlink.com 1.10,2013-10-29 13:25:00,
2013-10-29 09:40:00,41.4,25.0,30.45,North,355,0.0,4.0,52,0.00,,,0.00,weatherlink.com 1.10,2013-10-29 13:40:00,
2013-10-29 09:56:00,41.7,26.0,30.46,NNW,327,3.0,4.0,53,0.00,,,0.00,weatherlink.com 1.10,2013-10-29 13:56:00,
2013-10-29 10:11:00,42.1,26.0,30.45,NNW,330,2.0,4.0,54,0.00,,,0.00,weatherlink.com 1.10,2013-10-29 14:11:00,
2013-10-29 10:27:00,42.6,26.0,30.45,NW,323,0.0,4.0,52,0.00,,,0.00,weatherlink.com 1.10,2013-10-29 14:27:00,
2013-10-29 10:42:00,43.2,26.0,30.45,East,84,1.0,5.0,51,0.00,,,0.00,weatherlink.com 1.10,2013-10-29 14:42:00,
2013-10-29 10:58:00,43.6,27.0,30.45,NNW,344,0.0,3.0,52,0.00,,,0.00,weatherlink.com 1.10,2013-10-29 14:58:00,
2013-10-29 11:12:00,44.1,26.0,30.44,NNW,341,0.0,3.0,49,0.00,,,0.00,weatherlink.com 1.10,2013-10-29 15:12:00,
2013-10-29 11:28:00,43.8,26.0,30.44,NW,304,0.0,5.0,50,0.00,,,0.00,weatherlink.com 1.10,2013-10-29 15:28:00,
2013-10-29 11:44:00,44.3,27.0,30.44,SSE,163,2.0,3.0,50,0.00,,,0.00,weatherlink.com 1.10,2013-10-29 15:44:00,
2013-10-29 11:59:00,44.7,27.0,30.44,NW,323,0.0,3.0,51,0.00,,,0.00,weatherlink.com 1.10,2013-10-29 15:59:00,
2013-10-29 12:14:00,45.4,28.0,30.44,NE,42,0.0,2.0,50,0.00,,,0.00,weatherlink.com 1.10,2013-10-29 16:14:00,
2013-10-29 12:29:00,46.7,27.0,30.43,NNW,329,0.0,5.0,46,0.00,,,0.00,weatherlink.com 1.10,2013-10-29 16:29:00,
2013-10-29 12:44:00,47.4,28.0,30.43,NNW,327,1.0,3.0,47,0.00,,,0.00,weatherlink.com 1.10,2013-10-29 16:44:00,
2013-10-29 12:59:00,47.7,29.0,30.43,SW,227,3.0,3.0,48,0.00,,,0.00,weatherlink.com 1.10,2013-10-29 16:59:00,
2013-10-29 13:14:00,47.6,29.0,30.43,East,84,0.0,3.0,49,0.00,,,0.00,weatherlink.com 1.10,2013-10-29 17:14:00,
2013-10-29 13:30:00,48.3,29.0,30.42,NW,318,1.0,5.0,48,0.00,,,0.00,weatherlink.com 1.10,2013-10-29 17:30:00,
2013-10-29 13:45:00,49.5,30.0,30.41,WNW,303,0.0,4.0,48,0.00,,,0.00,weatherlink.com 1.10,2013-10-29 17:45:00,
2013-10-29 14:00:00,52.7,32.0,30.41,WNW,295,0.0,1.0,45,0.00,,,0.00,weatherlink.com 1.10,2013-10-29 18:00:00,
2013-10-29 14:16:00,54.8,31.0,30.40,WNW,284,0.0,3.0,40,0.00,,,0.00,weatherlink.com 1.10,2013-10-29 18:16:00,
2013-10-29 14:32:00,54.8,29.0,30.39,SW,219,0.0,4.0,38,0.00,,,0.00,weatherlink.com 1.10,2013-10-29 18:32:00,
2013-10-29 14:46:00,55.9,30.0,30.39,West,268,0.0,3.0,37,0.00,,,0.00,weatherlink.com 1.10,2013-10-29 18:46:00,
2013-10-29 15:01:00,55.6,30.0,30.40,WNW,292,0.0,3.0,38,0.00,,,0.00,weatherlink.com 1.10,2013-10-29 19:01:00,
2013-10-29 15:17:00,56.0,30.0,30.40,WSW,238,0.0,3.0,37,0.00,,,0.00,weatherlink.com 1.10,2013-10-29 19:17:00,
2013-10-29 15:32:00,55.7,30.0,30.40,WSW,254,0.0,5.0,38,0.00,,,0.00,weatherlink.com 1.10,2013-10-29 19:32:00,
2013-10-29 15:47:00,54.7,29.0,30.40,West,270,0.0,2.0,38,0.00,,,0.00,weatherlink.com 1.10,2013-10-29 19:47:00,
2013-10-29 16:04:00,52.7,29.0,30.40,WSW,245,0.0,1.0,40,0.00,,,0.00,weatherlink.com 1.10,2013-10-29 20:04:00,
2013-10-29 16:19:00,51.6,27.0,30.40,West,260,0.0,4.0,39,0.00,,,0.00,weatherlink.com 1.10,2013-10-29 20:19:00,
2013-10-29 16:35:00,50.3,27.0,30.40,NW,306,0.0,3.0,40,0.00,,,0.00,weatherlink.com 1.10,2013-10-29 20:35:00,
2013-10-29 16:49:00,49.2,27.0,30.41,WNW,287,0.0,3.0,43,0.00,,,0.00,weatherlink.com 1.10,2013-10-29 20:49:00,
2013-10-29 17:04:00,48.4,27.0,30.40,WNW,287,0.0,1.0,44,0.00,,,0.00,weatherlink.com 1.10,2013-10-29 21:04:00,
2013-10-29 17:19:00,47.4,27.0,30.39,WNW,287,0.0,1.0,46,0.00,,,0.00,weatherlink.com 1.10,2013-10-29 21:19:00,
2013-10-29 17:35:00,46.5,27.0,30.39,WNW,287,0.0,0.0,47,0.00,,,0.00,weatherlink.com 1.10,2013-10-29 21:35:00,
2013-10-29 17:49:00,45.7,27.0,30.40,WNW,287,0.0,0.0,49,0.00,,,0.00,weatherlink.com 1.10,2013-10-29 21:49:00,
2013-10-29 18:05:00,44.5,28.0,30.41,WNW,288,0.0,0.0,52,0.00,,,0.00,weatherlink.com 1.10,2013-10-29 22:05:00,
2013-10-29 18:20:00,43.2,27.0,30.40,WNW,288,0.0,0.0,54,0.00,,,0.00,weatherlink.com 1.10,2013-10-29 22:20:00,
2013-10-29 18:36:00,42.2,27.0,30.40,WNW,287,0.0,0.0,55,0.00,,,0.00,weatherlink.com 1.10,2013-10-29 22:36:00,
2013-10-29 18:51:00,41.3,28.0,30.41,WNW,288,0.0,0.0,59,0.00,,,0.00,weatherlink.com 1.10,2013-10-29 22:51:00,
2013-10-29 19:06:00,40.5,28.0,30.42,WNW,287,0.0,0.0,62,0.00,,,0.00,weatherlink.com 1.10,2013-10-29 23:06:00,
2013-10-29 19:21:00,39.8,28.0,30.42,WNW,288,0.0,0.0,64,0.00,,,0.00,weatherlink.com 1.10,2013-10-29 23:21:00,
2013-10-29 19:36:00,39.0,28.0,30.43,WNW,288,0.0,0.0,64,0.00,,,0.00,weatherlink.com 1.10,2013-10-29 23:36:00,
2013-10-29 19:51:00,38.5,27.0,30.42,WNW,287,0.0,0.0,64,0.00,,,0.00,weatherlink.com 1.10,2013-10-29 23:51:00,
2013-10-29 20:07:00,38.2,27.0,30.41,WNW,288,0.0,0.0,65,0.00,,,0.00,weatherlink.com 1.10,2013-10-30 00:07:00,
2013-10-29 20:25:00,38.1,28.0,30.41,WNW,287,0.0,0.0,66,0.00,,,0.00,weatherlink.com 1.10,2013-10-30 00:25:00,
2013-10-29 20:38:00,38.0,27.0,30.41,WNW,288,0.0,0.0,66,0.00,,,0.00,weatherlink.com 1.10,2013-10-30 00:38:00,
2013-10-29 20:55:00,37.6,27.0,30.41,WNW,288,0.0,0.0,66,0.00,,,0.00,weatherlink.com 1.10,2013-10-30 00:55:00,
2013-10-29 21:09:00,37.6,27.0,30.41,WNW,288,0.0,1.0,67,0.00,,,0.00,weatherlink.com 1.10,2013-10-30 01:09:00,
2013-10-29 21:25:00,37.2,28.0,30.41,WNW,288,0.0,1.0,69,0.00,,,0.00,weatherlink.com 1.10,2013-10-30 01:25:00,
2013-10-29 21:39:00,36.9,28.0,30.41,North,355,0.0,0.0,69,0.00,,,0.00,weatherlink.com 1.10,2013-10-30 01:39:00,
2013-10-29 21:54:00,36.8,27.0,30.41,NNE,16,0.0,0.0,68,0.00,,,0.00,weatherlink.com 1.10,2013-10-30 01:54:00,
2013-10-29 22:09:00,36.9,28.0,30.41,NNE,16,0.0,0.0,69,0.00,,,0.00,weatherlink.com 1.10,2013-10-30 02:09:00,
2013-10-29 22:24:00,36.5,28.0,30.41,NNE,16,0.0,1.0,70,0.00,,,0.00,weatherlink.com 1.10,2013-10-30 02:24:00,
2013-10-29 22:39:00,36.3,28.0,30.41,NNE,15,0.0,0.0,73,0.00,,,0.00,weatherlink.com 1.10,2013-10-30 02:39:00,
2013-10-29 22:55:00,36.1,29.0,30.41,NNE,15,0.0,0.0,76,0.00,,,0.00,weatherlink.com 1.10,2013-10-30 02:55:00,
2013-10-29 23:10:00,35.7,29.0,30.41,NNE,16,0.0,0.0,75,0.00,,,0.00,weatherlink.com 1.10,2013-10-30 03:10:00,
2013-10-29 23:25:00,35.3,28.0,30.41,NNE,15,0.0,0.0,75,0.00,,,0.00,weatherlink.com 1.10,2013-10-30 03:25:00,
2013-10-29 23:41:00,35.1,29.0,30.40,NNE,16,0.0,0.0,77,0.00,,,0.00,weatherlink.com 1.10,2013-10-30 03:41:00,
2013-10-29 23:56:00,35.2,29.0,30.39,NNE,16,0.0,0.0,78,0.00,,,0.00,weatherlink.com 1.10,2013-10-30 03:56:00,